AL7BX-WX Weather Reports


time (UTC)temp
C
wind
direction
speed
KPH
gust
KPH
rain 1hr
cm
rain 24hr
cm
rain mn
cm
humidity
%
barometer
mb
20260509051803 17 192 1.6 6.4 0.00 0.00 0.00 24
20260509050904 17 192 1.6 6.4 0.00 0.00 0.00 23
20260509050003 17 192 1.6 4.8 0.00 0.00 0.00 22
20260509045403 17 192 1.6 4.8 0.00 0.00 0.00 23
20260509044503 17 192 1.6 4.8 0.00 0.00 0.00 23
20260509043603 17 193 1.6 3.2 0.00 0.00 0.00 24
20260509042914 17 193 1.6 4.8 0.00 0.00 0.00 24
20260509041803 17 193 3.2 6.4 0.00 0.00 0.00 25
20260509040903 17 194 3.2 8.0 0.00 0.00 0.00 25
20260509040003 17 197 1.6 4.8 0.00 0.00 0.00 25
20260509035403 17 196 3.2 9.7 0.00 0.00 0.00 25
20260509034503 18 229 4.8 8.0 0.00 0.00 0.00 23
20260509033814 18 341 3.2 6.4 0.00 0.00 0.00 22
20260509032703 20 360 3.2 8.0 0.00 0.00 0.00 21
20260509031803 21 360 3.2 11.3 0.00 0.00 0.00 20
20260509030903 21 360 4.8 9.7 0.00 0.00 0.00 19
20260509030003 21 360 3.2 11.3 0.00 0.00 0.00 19
20260509025403 21 360 3.2 8.0 0.00 0.00 0.00 19
20260509024503 22 360 3.2 14.5 0.00 0.00 0.00 18
20260509023603 22 360 4.8 11.3 0.00 0.00 0.00 18
20260509022703 22 360 8.0 14.5 0.00 0.00 0.00 18
20260509022013 23 360 8.0 14.5 0.00 0.00 0.00 19
20260509020903 23 360 8.0 16.1 0.00 0.00 0.00 19
20260509020003 24 360 8.0 14.5 0.00 0.00 0.00 20
20260509015403 25 360 9.7 16.1 0.00 0.00 0.00 20
20260509014503 25 360 8.0 17.7 0.00 0.00 0.00 19
20260509013603 26 357 8.0 17.7 0.00 0.00 0.00 19
20260509012703 26 358 8.0 20.9 0.00 0.00 0.00 17
20260509012014 26 358 8.0 16.1 0.00 0.00 0.00 18
20260509010903 26 359 11.3 22.5 0.00 0.00 0.00 20
20260509010003 27 359 8.0 17.7 0.00 0.00 0.00 20
20260509005403 27 359 8.0 14.5 0.00 0.00 0.00 22
20260509004504 27 359 6.4 11.3 0.00 0.00 0.00 21
20260509003813 27 358 8.0 11.3 0.00 0.00 0.00 19
20260509002703 27 338 16.1 22.5 0.00 0.00 0.00 20
20260509001803 28 347 12.9 27.4 0.00 0.00 0.00 22
20260509001113 28 356 6.4 24.1 0.00 0.00 0.00 17
20260509000003 29 352 6.4 14.5 0.00 0.00 0.00 18
20260508235403 28 316 3.2 9.7 0.00 0.00 0.00 18
20260508234503 28 290 6.4 11.3 0.00 0.00 0.00 18
20260508233603 27 296 3.2 9.7 0.00 0.00 0.00 22
20260508232703 27 138 3.2 9.7 0.00 0.00 0.00 18
20260508231803 27 100 4.8 9.7 0.00 0.00 0.00 18
20260508231113 27 80 3.2 9.7 0.00 0.00 0.00 18
20260508230003 27 78 4.8 11.3 0.00 0.00 0.00 20
20260508225403 27 89 8.0 16.1 0.00 0.00 0.00 19
20260508224503 27 111 4.8 9.7 0.00 0.00 0.00 20
20260508223603 27 26 6.4 17.7 0.00 0.00 0.00 21
20260508222703 27 24 6.4 14.5 0.00 0.00 0.00 20
20260508221805 27 162 6.4 14.5 0.00 0.00 0.00 21
20260508220903 27 174 6.4 11.3 0.00 0.00 0.00 19
20260508220003 27 160 6.4 11.3 0.00 0.00 0.00 19
20260508215613 27 133 4.8 9.7 0.00 0.00 0.00 20
20260508214503 27 131 3.2 11.3 0.00 0.00 0.00 20
20260508213603 27 81 4.8 14.5 0.00 0.00 0.00 23
20260508212703 27 332 3.2 6.4 0.00 0.00 0.00 24
20260508211803 27 302 4.8 14.5 0.00 0.00 0.00 20
20260508210903 26 63 6.4 17.7 0.00 0.00 0.00 21
20260508210003 26 345 4.8 16.1 0.00 0.00 0.00 23
20260508205403 26 9 4.8 12.9 0.00 0.00 0.00 27
20260508204503 26 345 8.0 22.5 0.00 0.00 0.00 21
20260508203814 27 325 9.7 19.3 0.00 0.00 0.00 21
20260508202703 26 307 3.2 11.3 0.00 0.00 0.00 21
20260508201803 26 352 6.4 19.3 0.00 0.00 0.00 23
20260508200903 26 340 4.8 19.3 0.00 0.00 0.00 24
20260508200003 26 347 4.8 14.5 0.00 0.00 0.00 24
20260508195403 26 14 4.8 11.3 0.00 0.00 0.00 21
20260508194503 26 9 4.8 11.3 0.00 0.00 0.00 22
20260508193603 26 360 6.4 17.7 0.00 0.00 0.00 23
20260508192703 26 1 6.4 17.7 0.00 0.00 0.00 23
20260508191803 25 347 6.4 20.9 0.00 0.00 0.00 23
20260508190903 26 312 6.4 14.5 0.00 0.00 0.00 23
20260508190213 26 313 8.0 17.7 0.00 0.00 0.00 21
20260508185403 26 314 4.8 9.7 0.00 0.00 0.00 24
20260508184503 25 350 3.2 9.7 0.00 0.00 0.00 23
20260508183603 25 360 6.4 9.7 0.00 0.00 0.00 22
20260508182703 25 360 12.9 20.9 0.00 0.00 0.00 23
20260508181803 25 351 12.9 20.9 0.00 0.00 0.00 25
20260508180903 25 6 6.4 16.1 0.00 0.00 0.00 25
20260508180212 25 51 3.2 14.5 0.00 0.00 0.00 28
20260508175403 25 36 6.4 19.3 0.00 0.00 0.00 24
20260508174503 25 17 3.2 11.3 0.00 0.00 0.00 24
20260508173603 24 340 3.2 8.0 0.00 0.00 0.00 26
20260508172703 23 356 4.8 9.7 0.00 0.00 0.00 26
20260508171803 24 360 4.8 9.7 0.00 0.00 0.00 26
20260508170903 24 360 1.6 9.7 0.00 0.00 0.00 26
20260508170003 23 352 4.8 9.7 0.00 0.00 0.00 27
20260508165403 23 352 4.8 8.0 0.00 0.00 0.00 30
20260508164504 22 360 4.8 8.0 0.00 0.00 0.00 28
20260508163603 22 335 4.8 9.7 0.00 0.00 0.00 28
20260508162914 22 291 4.8 8.0 0.00 0.00 0.00 28
20260508161803 22 324 1.6 4.8 0.00 0.00 0.00 26
20260508160903 22 33 1.6 4.8 0.00 0.00 0.00 27
20260508160003 21 40 0.0 4.8 0.00 0.00 0.00 29
20260508155403 20 37 0.0 3.2 0.00 0.00 0.00 31
20260508154503 20 44 1.6 4.8 0.00 0.00 0.00 31
20260508153603 18 40 1.6 6.4 0.00 0.00 0.00 32
20260508152703 18 34 1.6 6.4 0.00 0.00 0.00 36
20260508151803 17 34 1.6 6.4 0.00 0.00 0.00 35
20260508150903 16 32 1.6 6.4 0.00 0.00 0.00 37
20260508150004 16 34 3.2 6.4 0.00 0.00 0.00 37
20260508145403 15 38 1.6 4.8 0.00 0.00 0.00 38
20260508144503 14 31 4.8 8.0 0.00 0.00 0.00 37
20260508143603 14 21 3.2 8.0 0.00 0.00 0.00 39
20260508142703 13 33 1.6 8.0 0.00 0.00 0.00 39
20260508142014 13 34 1.6 4.8 0.00 0.00 0.00 40
20260508140903 11 355 0.0 4.8 0.00 0.00 0.00 42
20260508140213 11 348 1.6 6.4 0.00 0.00 0.00 44
20260508135403 10 260 1.6 4.8 0.00 0.00 0.00 46
20260508134503 8 227 0.0 3.2 0.00 0.00 0.00 49
20260508133813 8 226 1.6 4.8 0.00 0.00 0.00 53
20260508132912 8 194 3.2 6.4 0.00 0.00 0.00 54
20260508131803 7 181 0.0 1.6 0.00 0.00 0.00 50
20260508130903 7 178 0.0 4.8 0.00 0.00 0.00 48
20260508130004 8 177 0.0 4.8 0.00 0.00 0.00 47
20260508125403 8 225 1.6 6.4 0.00 0.00 0.00 47
20260508124503 7 259 1.6 3.2 0.00 0.00 0.00 47
20260508123813 7 257 1.6 6.4 0.00 0.00 0.00 47
20260508122703 7 267 1.6 4.8 0.00 0.00 0.00 48
20260508121803 6 268 1.6 4.8 0.00 0.00 0.00 52
20260508120903 6 262 0.0 4.8 0.00 0.00 0.00 54
20260508120003 6 261 0.0 1.6 0.00 0.00 0.00 53
20260508115403 6 282 0.0 3.2 0.00 0.00 0.00 53
20260508114503 6 269 0.0 3.2 0.00 0.00 0.00 53
20260508113603 6 266 1.6 3.2 0.00 0.00 0.00 52
20260508112703 6 268 1.6 6.4 0.00 0.00 0.00 52
20260508111803 7 272 0.0 4.8 0.00 0.00 0.00 49
20260508110903 7 0 0.0 0.0 0.00 0.00 0.00 48
20260508110214 7 0 0.0 0.0 0.00 0.00 0.00 48
20260508105403 7 0 0.0 0.0 0.00 0.00 0.00 48
20260508104503 8 0 0.0 0.0 0.00 0.00 0.00 46
20260508103603 9 260 0.0 3.2 0.00 0.00 0.00 45
20260508102703 10 261 3.2 6.4 0.00 0.00 0.00 42
20260508101803 12 198 1.6 8.0 0.00 0.00 0.00 41
20260508101114 13 159 1.6 4.8 0.00 0.00 0.00 34
20260508100003 13 140 3.2 6.4 0.00 0.00 0.00 33
20260508095403 13 123 3.2 8.0 0.00 0.00 0.00 33
20260508094503 13 137 4.8 8.0 0.00 0.00 0.00 33
20260508093814 13 132 3.2 8.0 0.00 0.00 0.00 33
20260508092703 12 132 3.2 6.4 0.00 0.00 0.00 34
20260508091803 13 132 3.2 6.4 0.00 0.00 0.00 34
20260508090903 13 130 3.2 6.4 0.00 0.00 0.00 34
20260508090003 12 127 3.2 6.4 0.00 0.00 0.00 35
20260508085404 13 126 3.2 6.4 0.00 0.00 0.00 34
20260508084714 13 124 3.2 6.4 0.00 0.00 0.00 34
20260508083603 13 123 3.2 4.8 0.00 0.00 0.00 35
20260508082913 13 123 3.2 6.4 0.00 0.00 0.00 34
20260508081803 13 171 3.2 8.0 0.00 0.00 0.00 33
20260508080903 13 180 3.2 4.8 0.00 0.00 0.00 34
20260508080003 13 182 3.2 6.4 0.00 0.00 0.00 34
20260508075403 12 182 3.2 6.4 0.00 0.00 0.00 35
20260508074713 12 182 1.6 4.8 0.00 0.00 0.00 36
20260508073603 12 182 1.6 4.8 0.00 0.00 0.00 38
20260508072703 12 182 1.6 4.8 0.00 0.00 0.00 37
20260508071803 12 182 1.6 4.8 0.00 0.00 0.00 37
20260508070903 13 182 1.6 6.4 0.00 0.00 0.00 35
20260508070004 13 182 1.6 4.8 0.00 0.00 0.00 33
20260508065403 13 182 1.6 4.8 0.00 0.00 0.00 34
20260508064503 13 183 3.2 6.4 0.00 0.00 0.00 34
20260508063603 12 202 1.6 6.4 0.00 0.00 0.00 35
20260508062703 13 203 1.6 6.4 0.00 0.00 0.00 33
20260508061803 13 205 1.6 6.4 0.00 0.00 0.00 33
20260508060903 13 212 3.2 9.7 0.00 0.00 0.00 32
20260508060006 13 146 1.6 6.4 0.00 0.00 0.00 32
20260508055403 13 146 1.6 6.4 0.00 0.00 0.00 33
20260508054503 14 146 1.6 6.4 0.00 0.00 0.00 32
20260508053603 14 146 3.2 6.4 0.00 0.00 0.00 33
20260508052703 15 146 1.6 6.4 0.00 0.00 0.00 30